Regional Weather Roundup
Issued by NWS Kansas City/Pleasant Hill, MO

Home | Current Version | Previous Version | Graphics & Text | Print | Product List | Glossary Off
Versions: 1 2 3 4 5 6 7 8 9 10 11 12 13 14 15 16 17 18 19 20 21 22 23 24 25 26 27 28 29 30 31 32 33 34 35 36 37 38 39 40 41 42 43 44 45 46 47 48 49 50

966
ASUS43 KEAX 302210
RWREAX

WEATHER ROUNDUP FOR EASTERN KANSAS AND NORTHWEST MISSOURI
NATIONAL WEATHER SERVICE KANSAS CITY/PLEASANT HILL MO
500 PM CDT TUE AUG 30 2016

KSZ040-057-103>105-MOZ028-029-037-043-302300-
...KANSAS CITY METROPOLITAN AREA...

CITY           SKY/WX    TMP DP  RH WIND       PRES   REMARKS
K.C. INTL      MOSUNNY   86  70  58 N6        30.09F HX  90
K.C. DOWNTOWN  MOSUNNY   85  70  60 N8        30.07F
LEES SUMMIT    CLOUDY    86  71  60 NE9       30.09F HX  91
OLATHE - IXD   MOSUNNY   86  72  62 N9        30.09F HX  92
OLATHE - OJC   CLOUDY    85  69  58 N5        30.08F
LAWRENCE       MOSUNNY   78  77  96 CALM      30.08S

$$

MOZ001>008-011>017-020>025-030>033-038>040-044>046-053-054-302300-
...NORTHERN AND CENTRAL MISSOURI...

CITY           SKY/WX    TMP DP  RH WIND       PRES   REMARKS
ST. JOSEPH     MOSUNNY   83  71  67 N6        30.10S
MOSBY          PTCLDY    86  70  58 N8        30.08S HX  90
WHITEMAN AFB   MOSUNNY   88  73  60 E8        30.07S HX  95
CLINTON        CLOUDY    79  72  78 SE15G21   30.09R
SEDALIA        CLOUDY    80  69  69 SE12      30.10S THUNDER
WARSAW         NOT AVBL
CHILLICOTHE      N/A     85  73  67 N3        30.10S HX  91
KIRKSVILLE     MOSUNNY   84  70  62 N8        30.10F

$$

MOZ041-047>049-056>058-063>065-088>090-097-302300-
...EASTERN AND SOUTHERN MISSOURI...

CITY           SKY/WX    TMP DP  RH WIND       PRES   REMARKS
ST. LOUIS INTL TSTM      75  71  87 W6        30.09F
SPIRIT OF STL  TSTM      73  71  93 E8        30.07F FOG
COLUMBIA       CLOUDY    77  71  82 SE5       30.09F
JEFFERSON CITY CLOUDY    76  72  87 NE3       30.09S
ROLLA          LGT RAIN  74  71  91 SE5       30.11S
OSAGE BEACH    LGT RAIN  78  71  79 CALM      30.10F
SPRINGFIELD    SUNNY     91  67  44 NE12      30.06F HX  94
BRANSON        MOSUNNY   88  70  55 E7        30.07F HX  92
JOPLIN         MOSUNNY   92  70  48 VRB6      30.04F HX  97
WEST PLAINS    MOSUNNY   91  69  48 VRB7      30.08F HX  96

$$

IAZ060-094-KSZ022-034>040-054-083-096-NEZ052-066-093-302300-
...KANSAS...SOUTHEAST NEBRASKA AND IOWA...

CITY           SKY/WX    TMP DP  RH WIND       PRES   REMARKS
TOPEKA         MOSUNNY   84  72  67 NE6       30.08F
MANHATTAN      PTSUNNY   80  73  79 NE3       30.10F
EMPORIA        TSTM      75  72  90 W9        30.10R FOG
CHANUTE        MOSUNNY   91  71  51 NE8       30.04F HX  97
WICHITA        PTSUNNY   87  68  52 N8        30.05F HX  90
OMAHA          CLOUDY    80  67  64 N5        30.14S
LINCOLN        CLOUDY    79  70  74 N10       30.16R
FALLS CITY     PTSUNNY   81  71  71 NE5       30.11S
LAMONI         PTSUNNY   79  72  79 N6        30.12F
DES MOINES     CLOUDY    81  67  62 N8        30.11S

$$





USA.gov is the U.S. government's official web portal to all federal, state and local government web resources and services.